Regional Weather Roundup
Issued by NWS

Home | Current Version | Previous Version | Text Only | Print | Product List | Glossary On
Versions: 1 2 3 4 5 6 7 8 9 10 11 12 13 14 15 16 17 18 19 20 21 22 23 24 25 26 27 28 29 30 31 32 33 34 35 36 37 38 39 40 41 42 43 44 45 46 47 48 49 50
000
ASUS45 KBOI 050010
RWRID

IDAHO REGIONAL WEATHER ROUNDUP
NATIONAL WEATHER SERVICE BOISE ID
600 PM MDT WED MAY 04 2016

NOTE: "FAIR" INDICATES FEW OR NO CLOUDS BELOW 12000 FEET
WITH NO SIGNIFICANT WEATHER AND/OR OBSTRUCTIONS TO VISIBILITY

IDZ012-014-050100-
SOUTHWEST IDAHO


CITY           SKY/WX    TMP DP  RH WIND       PRES   REMARKS
BOISE          CLOUDY    82  34  17 SE9       29.82F
CALDWELL       CLOUDY    80  43  26 W9        29.80F
MOUNTAIN HOME  CLOUDY    81  35  18 SW15G26   29.83F
$$

IDZ016-017-050100-
SOUTHCENTRAL IDAHO


CITY           SKY/WX    TMP DP  RH WIND       PRES   REMARKS
BURLEY         PTSUNNY   75  32  20 S8        29.94F
JEROME         CLOUDY    77  30  17 SE9       29.93F
TWIN FALLS     CLOUDY    74  38  27 SE6       29.93F
$$

IDZ019>023-050100-
SOUTHEAST IDAHO


CITY           SKY/WX    TMP DP  RH WIND       PRES   REMARKS
IDAHO FALLS    CLOUDY    74  30  19 SW13      30.02F
POCATELLO      CLOUDY    74  34  23 S14G20    30.01F
REXBURG        CLOUDY    74  29  19 SW9       30.01F
$$

IDZ006-010-011-018-031-032-050100-
CENTRAL IDAHO MOUNTAINS


CITY           SKY/WX    TMP DP  RH WIND       PRES   REMARKS
MCCALL         CLOUDY    69  33  26 S8        29.94F
HAILEY         MOSUNNY   70  36  28 SE6       30.02F
STANLEY          N/A     67  27  22 S9        30.06F
SALMON         CLOUDY    79  32  18 SW6       29.89F
CHALLIS        PTSUNNY   73  19  13 SW10      29.97F
$$

IDZ002-004-006-007-026-050100-
NORTHERN IDAHO


CITY           SKY/WX    TMP DP  RH WIND       PRES   REMARKS
LEWISTON       CLOUDY    78  49  35 W7        29.80F
LOWELL           N/A     75  48  38 CALM      29.80S
COEUR D`ALENE  PTSUNNY   75  45  33 W8        29.84F
MULLAN PASS    PTSUNNY   61  30  31 SW7       30.02F
$$



USA.gov is the U.S. government's official web portal to all federal, state and local government web resources and services.